EW4423 Weather Reports


Display with metric or nautical units.
time (UTC)temp
F
wind
direction
speed
MPH
gust
MPH
rain 1hr
in
rain 24hr
in
rain mn
in
humidity
%
barometer
mb
20260504201506 81 185 12.0 25.0 0.00 0.00 0.00 51 1009.9
20260504200006 81 163 13.0 22.0 0.00 0.00 0.00 50 1010.3
20260504194605 80 169 13.0 22.0 0.00 0.00 0.00 51 1010.5
20260504193057 80 184 12.0 22.0 0.00 0.00 0.00 51 1010.8
20260504191615 80 173 14.0 22.0 0.00 0.00 0.00 52 1010.9
20260504190053 79 185 11.0 21.0 0.00 0.00 0.00 52 1011.2
20260504184600 79 175 13.0 19.0 0.00 0.00 0.00 52 1011.4
20260504183048 78 174 13.0 24.0 0.00 0.00 0.00 52 1011.7
20260504181546 78 185 12.0 24.0 0.00 0.00 0.00 52 1011.9
20260504180043 77 173 12.0 20.0 0.00 0.00 0.00 54 1012.1
20260504174542 77 215 16.0 25.0 0.00 0.00 0.00 52 1012.2
20260504173038 76 225 14.0 21.0 0.00 0.00 0.00 54 1012.4
20260504171538 75 209 13.0 20.0 0.00 0.00 0.00 54 1012.9
20260504140105 65 219 9.0 21.0 0.00 0.00 0.00 72 1014.3
20260504081522 58 190 8.0 10.0 0.00 0.00 0.00 73 1014.0
20260504060104 61 199 7.0 9.0 0.00 0.00 0.00 67 1015.6
20260504044544 63 222 4.0 8.0 0.00 0.00 0.00 65 1016.0
20260504043044 63 205 7.0 10.0 0.00 0.00 0.00 65 1015.9
20260504041543 63 199 6.0 9.0 0.00 0.00 0.00 63 1015.9
20260504040042 63 193 6.0 8.0 0.00 0.00 0.00 63 1016.0
20260504034553 64 180 5.0 8.0 0.00 0.00 0.00 62 1015.8
20260504033051 64 205 6.0 9.0 0.00 0.00 0.00 60 1015.8
20260504031556 65 194 5.0 7.0 0.00 0.00 0.00 57 1015.9
20260504030052 66 189 4.0 6.0 0.00 0.00 0.00 56 1016.0
20260504024544 66 188 3.0 6.0 0.00 0.00 0.00 55 1015.9
20260504023039 67 196 4.0 6.0 0.00 0.00 0.00 53 1016.0
20260504021538 69 200 4.0 6.0 0.00 0.00 0.00 52 1015.9
20260504020038 70 204 3.0 5.0 0.00 0.00 0.00 50 1015.7
20260504014539 71 207 2.0 5.0 0.00 0.00 0.00 48 1015.8
20260504013039 72 216 2.0 4.0 0.00 0.00 0.00 48 1015.7
20260504011535 73 216 3.0 5.0 0.00 0.00 0.00 47 1015.5
20260504010035 73 216 4.0 8.0 0.00 0.00 0.00 47 1015.4
20260504004535 75 217 4.0 9.0 0.00 0.00 0.00 46 1015.4
20260504003041 76 208 6.0 11.0 0.00 0.00 0.00 44 1015.4
20260504001532 78 203 8.0 12.0 0.00 0.00 0.00 43 1015.5
20260504000030 79 219 5.0 14.0 0.00 0.00 0.00 42 1015.6
20260503234529 79 210 6.0 13.0 0.00 0.00 0.00 42 1015.7
20260503233036 80 215 7.0 13.0 0.00 0.00 0.00 42 1015.7
20260503231528 81 196 9.0 14.0 0.00 0.00 0.00 41 1015.7
20260503230032 81 240 6.0 13.0 0.00 0.00 0.00 40 1016.0
20260503224530 81 238 7.0 19.0 0.00 0.00 0.00 39 1015.9
20260503223026 82 215 7.0 18.0 0.00 0.00 0.00 39 1015.9
20260503221523 82 229 10.0 16.0 0.00 0.00 0.00 38 1016.0
20260503220023 82 245 5.0 16.0 0.00 0.00 0.00 40 1016.2
20260503214523 82 246 4.0 13.0 0.00 0.00 0.00 41 1016.2
20260503213018 82 194 10.0 20.0 0.00 0.00 0.00 42 1016.6
20260503211515 82 215 6.0 16.0 0.00 0.00 0.00 43 1016.8
20260503210013 82 223 8.0 16.0 0.00 0.00 0.00 42 1017.1
20260503204509 82 200 11.0 15.0 0.00 0.00 0.00 44 1017.3
20260503203007 82 252 8.0 17.0 0.00 0.00 0.00 44 1017.6